This demonstration page uses our WeatherBlox Daily Observations layout. Learn more.

Left ArrowRight Arrow

Hourly Observations for May 17, 2017

Temp ( °F °C ) Dew Point ( °F °C ) Humidity (%) Winds ( mph kmh ) Pressure ( in mb ) Visibility ( mi km ) Precip ( " mm )
12:53 am 00:53 Clear 72 22.2 22 -5.6 15 15 WNW 22 35 29.62 1003 10 16 0.00 0.00
1:53 am 01:53 Clear 69 20.6 21 -6.1 16 16 WNW 16 26 29.65 1004 10 16 0.00 0.00
2:53 am 02:53 Clear 66 18.9 21 -6.1 18 18 WNW 13 20 29.65 1004 10 16 0.00 0.00
3:53 am 03:53 Clear 63 17.2 22 -5.6 21 21 W 10 17 29.66 1004 10 16 0.00 0.00
4:53 am 04:53 Clear 63 17.2 22 -5.6 21 21 SW 7 11 29.67 1005 10 16 0.00 0.00
5:53 am 05:53 Clear 56 13.3 23 -5 28 28 WSW 7 11 29.69 1005 10 16 0.00 0.00
6:53 am 06:53 Clear 58 14.4 24 -4.4 27 27 W 14 22 29.69 1005 10 16 0.00 0.00
7:53 am 07:53 Sunny 60 15.6 25 -3.9 26 26 WSW 8 13 29.72 1006 10 16 0.00 0.00
8:53 am 08:53 Sunny 67 19.4 24 -4.4 20 20 WSW 12 19 29.73 1007 10 16 0.00 0.00
9:53 am 09:53 Sunny 71 21.7 25 -3.9 18 18 W 17 28 29.73 1007 10 16 0.00 0.00
10:53 am 10:53 Sunny 74 23.3 23 -5 15 15 W 17 28 29.72 1007 10 16 0.00 0.00
11:53 am 11:53 Sunny 78 25.6 20 -6.7 11 11 WSW 20 31 29.71 1006 10 16 0.00 0.00
12:53 pm 12:53 Sunny 81 27.2 19 -7.2 10 10 WSW 20 31 29.69 1005 10 16 0.00 0.00
1:53 pm 13:53 Sunny 83 28.3 17 -8.3 8 8 WSW 17 28 29.67 1005 10 16 0.00 0.00
2:53 pm 14:53 Sunny 85 29.4 20 -6.7 9 9 WSW 15 24 29.64 1004 10 16 0.00 0.00
3:53 pm 15:53 Sunny 87 30.6 20 -6.7 8 8 WSW 17 28 29.62 1003 10 16 0.00 0.00
4:53 pm 16:53 Sunny 88 31.1 19 -7.2 8 8 W 15 24 29.59 1002 10 16 0.00 0.00
5:53 pm 17:53 Sunny 89 31.7 19 -7.2 7 7 WSW 16 26 29.58 1002 10 16 0.00 0.00
6:53 pm 18:53 Sunny 88 31.1 19 -7.2 8 8 SW 16 26 29.57 1001 10 16 0.00 0.00
7:53 pm 19:53 Sunny 88 31.1 20 -6.7 8 8 WSW 16 26 29.56 1001 10 16 0.00 0.00
8:53 pm 20:53 Clear 80 26.7 20 -6.7 10 10 SW 8 13 29.56 1001 10 16 0.00 0.00
9:53 pm 21:53 Clear 74 23.3 21 -6.1 14 14 SW 9 15 29.57 1002 10 16 0.00 0.00
10:53 pm 22:53 Clear 72 22.2 21 -6.1 15 15 ESE 7 11 29.59 1002 10 16 0.00 0.00
11:53 pm 23:53 Clear 72 22.2 20 -6.7 14 14 Calm 29.58 1002 10 16 0.00 0.00

Powered by AerisWeather